ETD414 OMAA-VTSP

Flight info

Callsign ETD414
Flight time 6h 19m
Altitude 29000
Route KANIP N318 GEVED N881 AMBOS M700 PARAR N571 DOGET/N0464F310 N571 BOGAT/N0465F330 N571 RUPTI L645 UBNEN UBNEN1C
Aircraft A21N/M-SDE2E3FGHIJ1J5M1P2RWXYZ/LB1D1

Departure

Time 2026-05-05 17:48
Airport Zayed International Airport (OMAA)

Arrival

Time 2026-05-06 00:07
Airport Phuket International Airport (VTSP)
Time Latitude Longitude Altitude Speed Heading
2026-05-05 17:07 24.44848 54.63746 90 ft 0 kts 338°
2026-05-05 17:30 24.44835 54.63751 90 ft 2 kts 338°
2026-05-05 17:31 24.44820 54.63758 90 ft 2 kts 338°
2026-05-05 17:31 24.44806 54.63764 90 ft 2 kts 338°
2026-05-05 17:31 24.44792 54.63770 90 ft 2 kts 338°
2026-05-05 17:31 24.44778 54.63776 90 ft 2 kts 338°
2026-05-05 17:32 24.44764 54.63783 90 ft 2 kts 338°
2026-05-05 17:32 24.44750 54.63790 90 ft 2 kts 317°
2026-05-05 17:32 24.44741 54.63804 90 ft 2 kts 294°
2026-05-05 17:32 24.44737 54.63820 90 ft 2 kts 267°
2026-05-05 17:33 24.44741 54.63837 90 ft 2 kts 242°
2026-05-05 17:33 24.44745 54.63846 90 ft 0 kts 243°
2026-05-05 17:33 24.44746 54.63846 90 ft 0 kts 243°
2026-05-05 17:33 24.44745 54.63846 90 ft 0 kts 243°
2026-05-05 17:35 24.44744 54.63844 90 ft 0 kts 243°
2026-05-05 17:35 24.44740 54.63834 90 ft 2 kts 248°
2026-05-05 17:35 24.44733 54.63813 90 ft 3 kts 248°
2026-05-05 17:36 24.44720 54.63784 90 ft 4 kts 238°
2026-05-05 17:36 24.44695 54.63755 90 ft 5 kts 217°
2026-05-05 17:36 24.44654 54.63728 90 ft 7 kts 192°
2026-05-05 17:36 24.44605 54.63752 90 ft 8 kts 133°
2026-05-05 17:37 24.44564 54.63808 90 ft 10 kts 128°
2026-05-05 17:37 24.44518 54.63872 90 ft 11 kts 128°
2026-05-05 17:37 24.44469 54.63939 90 ft 11 kts 128°
2026-05-05 17:37 24.44422 54.64009 90 ft 11 kts 127°
2026-05-05 17:38 24.44373 54.64079 90 ft 11 kts 128°
2026-05-05 17:38 24.44321 54.64153 90 ft 12 kts 128°
2026-05-05 17:38 24.44266 54.64231 90 ft 12 kts 128°
2026-05-05 17:38 24.44211 54.64308 90 ft 12 kts 128°
2026-05-05 17:39 24.44156 54.64387 90 ft 13 kts 128°
2026-05-05 17:39 24.44100 54.64467 90 ft 13 kts 128°
2026-05-05 17:39 24.44043 54.64548 90 ft 13 kts 128°
2026-05-05 17:39 24.43984 54.64630 90 ft 13 kts 128°
2026-05-05 17:40 24.43927 54.64711 91 ft 13 kts 128°
2026-05-05 17:40 24.43869 54.64793 90 ft 13 kts 128°
2026-05-05 17:40 24.43811 54.64875 91 ft 13 kts 128°
2026-05-05 17:40 24.43753 54.64955 91 ft 13 kts 128°
2026-05-05 17:41 24.43695 54.65037 90 ft 13 kts 127°
2026-05-05 17:41 24.43637 54.65119 91 ft 13 kts 128°
2026-05-05 17:41 24.43577 54.65205 91 ft 14 kts 128°
2026-05-05 17:41 24.43513 54.65295 91 ft 15 kts 127°
2026-05-05 17:42 24.43449 54.65387 91 ft 15 kts 128°
2026-05-05 17:42 24.43385 54.65477 91 ft 14 kts 127°
2026-05-05 17:42 24.43319 54.65571 91 ft 16 kts 127°
2026-05-05 17:42 24.43250 54.65669 91 ft 16 kts 128°
2026-05-05 17:43 24.43183 54.65764 91 ft 15 kts 127°
2026-05-05 17:43 24.43116 54.65859 91 ft 15 kts 128°
2026-05-05 17:43 24.43051 54.65952 91 ft 15 kts 127°
2026-05-05 17:43 24.42988 54.66043 91 ft 14 kts 128°
2026-05-05 17:44 24.42923 54.66132 91 ft 14 kts 128°
2026-05-05 17:44 24.42860 54.66221 91 ft 14 kts 128°
2026-05-05 17:44 24.42798 54.66308 91 ft 14 kts 128°
2026-05-05 17:44 24.42736 54.66395 91 ft 14 kts 128°
2026-05-05 17:45 24.42675 54.66481 91 ft 14 kts 128°
2026-05-05 17:45 24.42614 54.66567 91 ft 14 kts 128°
2026-05-05 17:45 24.42554 54.66651 91 ft 14 kts 128°
2026-05-05 17:45 24.42495 54.66736 91 ft 13 kts 128°
2026-05-05 17:46 24.42435 54.66818 91 ft 13 kts 128°
2026-05-05 17:46 24.42370 54.66863 91 ft 11 kts 189°
2026-05-05 17:46 24.42301 54.66815 91 ft 11 kts 217°
2026-05-05 17:46 24.42235 54.66759 91 ft 12 kts 218°
2026-05-05 17:47 24.42188 54.66713 91 ft 6 kts 249°
2026-05-05 17:47 24.42197 54.66679 91 ft 0 kts 309°
2026-05-05 17:47 24.42217 54.66652 91 ft 25 kts 308°
2026-05-05 17:47 24.42484 54.66275 91 ft 96 kts 308°
2026-05-05 17:48 24.43020 54.65517 91 ft 153 kts 308°
2026-05-05 17:48 24.43770 54.64445 171 ft 191 kts 307°
2026-05-05 17:48 24.44544 54.63326 784 ft 185 kts 310°
2026-05-05 17:48 24.45355 54.62201 1360 ft 190 kts 312°
2026-05-05 17:49 24.46187 54.61063 1949 ft 192 kts 311°
2026-05-05 17:49 24.47029 54.59892 2207 ft 206 kts 311°
2026-05-05 17:49 24.47945 54.58610 2476 ft 220 kts 310°
2026-05-05 17:49 24.48929 54.57225 2690 ft 239 kts 310°
2026-05-05 17:50 24.49965 54.55762 3237 ft 241 kts 309°
2026-05-05 17:50 24.51000 54.54336 3869 ft 240 kts 316°
2026-05-05 17:50 24.52433 54.53380 4154 ft 249 kts 352°
2026-05-05 17:50 24.54149 54.53549 4422 ft 259 kts 26°
2026-05-05 17:51 24.55553 54.54849 4751 ft 271 kts 56°
2026-05-05 17:51 24.56257 54.56778 5287 ft 276 kts 83°
2026-05-05 17:51 24.56062 54.58867 5887 ft 280 kts 110°
2026-05-05 17:51 24.55170 54.60741 6507 ft 282 kts 118°
2026-05-05 17:52 24.54204 54.62627 7071 ft 285 kts 118°
2026-05-05 17:52 24.53232 54.64550 7612 ft 288 kts 117°
2026-05-05 17:52 24.52261 54.66479 8144 ft 290 kts 117°
2026-05-05 17:52 24.51298 54.68399 8661 ft 292 kts 117°
2026-05-05 17:53 24.50314 54.70358 9156 ft 294 kts 117°
2026-05-05 17:53 24.49326 54.72331 9642 ft 295 kts 117°
2026-05-05 17:53 24.48340 54.74301 10117 ft 297 kts 117°
2026-05-05 17:53 24.47330 54.76314 10411 ft 306 kts 118°
2026-05-05 17:54 24.46278 54.78411 10622 ft 318 kts 118°
2026-05-05 17:54 24.45188 54.80584 10831 ft 330 kts 118°
2026-05-05 17:54 24.44069 54.82811 11028 ft 341 kts 118°
2026-05-05 17:54 24.42904 54.85127 11221 ft 352 kts 118°
2026-05-05 17:55 24.41693 54.87534 11416 ft 363 kts 118°
2026-05-05 17:55 24.40476 54.89957 11737 ft 369 kts 118°
2026-05-05 17:55 24.39228 54.92437 12159 ft 372 kts 118°
2026-05-05 17:55 24.37968 54.94940 12569 ft 376 kts 118°
2026-05-05 17:56 24.36709 54.97442 12957 ft 379 kts 118°
2026-05-05 17:56 24.35413 55.00014 13373 ft 383 kts 118°
2026-05-05 17:56 24.34134 55.02550 13793 ft 385 kts 118°
2026-05-05 17:56 24.32830 55.05135 14237 ft 387 kts 118°
2026-05-05 17:57 24.31531 55.07697 14674 ft 389 kts 118°
2026-05-05 17:57 24.30201 55.10289 15086 ft 391 kts 118°
2026-05-05 17:57 24.28857 55.12903 15501 ft 393 kts 118°
2026-05-05 17:57 24.27505 55.15533 15923 ft 395 kts 118°
2026-05-05 17:58 24.26163 55.18144 16330 ft 398 kts 118°
2026-05-05 17:58 24.24807 55.20785 16721 ft 400 kts 118°
2026-05-05 17:58 24.23437 55.23455 17100 ft 403 kts 118°
2026-05-05 17:58 24.22054 55.26147 17487 ft 406 kts 118°
2026-05-05 17:59 24.20665 55.28851 17842 ft 409 kts 118°
2026-05-05 17:59 24.19264 55.31575 18219 ft 411 kts 118°
2026-05-05 17:59 24.17918 55.34324 18510 ft 416 kts 115°
2026-05-05 17:59 24.16696 55.37218 18763 ft 420 kts 112°
2026-05-05 18:00 24.15548 55.40185 19109 ft 423 kts 112°
2026-05-05 18:00 24.14423 55.43127 19458 ft 425 kts 111°
2026-05-05 18:00 24.13274 55.46130 19790 ft 428 kts 111°
2026-05-05 18:00 24.12122 55.49136 20100 ft 430 kts 112°
2026-05-05 18:01 24.10972 55.52127 20422 ft 432 kts 112°
2026-05-05 18:01 24.09801 55.55174 20725 ft 435 kts 112°
2026-05-05 18:01 24.08611 55.58258 21027 ft 437 kts 112°
2026-05-05 18:01 24.07437 55.61300 21311 ft 440 kts 112°
2026-05-05 18:02 24.06196 55.64407 21592 ft 443 kts 114°
2026-05-05 18:02 24.04823 55.67416 21889 ft 445 kts 117°
2026-05-05 18:02 24.03391 55.70429 22158 ft 447 kts 117°
2026-05-05 18:02 24.01939 55.73466 22420 ft 450 kts 117°
2026-05-05 18:03 24.00498 55.76478 22684 ft 452 kts 117°
2026-05-05 18:03 23.99029 55.79551 22948 ft 454 kts 118°
2026-05-05 18:03 23.97581 55.82584 23201 ft 457 kts 117°
2026-05-05 18:03 23.96107 55.85671 23471 ft 458 kts 118°
2026-05-05 18:04 23.94622 55.88780 23713 ft 461 kts 118°
2026-05-05 18:04 23.93145 55.91874 23942 ft 463 kts 118°
2026-05-05 18:04 23.91644 55.95016 24175 ft 465 kts 118°
2026-05-05 18:04 23.90142 55.98157 24413 ft 467 kts 118°
2026-05-05 18:05 23.88635 56.01306 24641 ft 469 kts 118°
2026-05-05 18:05 23.87125 56.04454 24850 ft 471 kts 118°
2026-05-05 18:05 23.85589 56.07650 25066 ft 473 kts 118°
2026-05-05 18:05 23.84069 56.10811 25278 ft 475 kts 118°
2026-05-05 18:06 23.82535 56.14003 25493 ft 476 kts 118°
2026-05-05 18:06 23.81498 56.16161 25668 ft 476 kts 118°
2026-05-05 18:06 23.79463 56.20394 26068 ft 475 kts 118°
2026-05-05 18:06 23.77925 56.23593 26346 ft 475 kts 118°
2026-05-05 18:07 23.76384 56.26795 26604 ft 475 kts 118°
2026-05-05 18:07 23.74859 56.29962 26863 ft 475 kts 118°
2026-05-05 18:07 23.73330 56.33135 27119 ft 475 kts 118°
2026-05-05 18:07 23.71794 56.36321 27366 ft 475 kts 118°
2026-05-05 18:08 23.70247 56.39526 27627 ft 475 kts 118°
2026-05-05 18:08 23.68716 56.42699 27882 ft 474 kts 118°
2026-05-05 18:08 23.67177 56.45884 28120 ft 474 kts 118°
2026-05-05 18:08 23.65636 56.49072 28365 ft 474 kts 118°
2026-05-05 18:09 23.64112 56.52223 28604 ft 474 kts 118°
2026-05-05 18:09 23.62569 56.55411 28812 ft 475 kts 118°
2026-05-05 18:09 23.61028 56.58593 29029 ft 475 kts 118°
2026-05-05 18:09 23.59497 56.61751 29246 ft 475 kts 118°
2026-05-05 18:10 23.57956 56.64928 29439 ft 476 kts 118°
2026-05-05 18:10 23.56420 56.68097 29605 ft 477 kts 118°
2026-05-05 18:10 23.54864 56.71298 29785 ft 477 kts 118°
2026-05-05 18:10 23.53298 56.74522 29960 ft 478 kts 118°
2026-05-05 18:11 23.51745 56.77716 30117 ft 479 kts 118°
2026-05-05 18:11 23.50177 56.80943 30272 ft 480 kts 118°
2026-05-05 18:11 23.48631 56.84118 30430 ft 480 kts 118°
2026-05-05 18:11 23.47066 56.87330 30585 ft 481 kts 118°
2026-05-05 18:12 23.45492 56.90559 30750 ft 481 kts 118°
2026-05-05 18:12 23.43920 56.93785 30905 ft 482 kts 118°
2026-05-05 18:12 23.42362 56.96979 31040 ft 483 kts 118°
2026-05-05 18:13 23.39214 57.03430 31051 ft 484 kts 118°
2026-05-05 18:13 23.36094 57.09934 31106 ft 484 kts 117°
2026-05-05 18:14 23.33130 57.16516 31170 ft 484 kts 116°
2026-05-05 18:14 23.30173 57.23085 31266 ft 484 kts 116°
2026-05-05 18:15 23.27208 57.29632 31319 ft 484 kts 116°
2026-05-05 18:15 23.24233 57.36177 31315 ft 484 kts 116°
2026-05-05 18:16 23.21262 57.42706 31262 ft 484 kts 116°
2026-05-05 18:16 23.18284 57.49246 31188 ft 484 kts 116°
2026-05-05 18:17 23.15289 57.55814 31122 ft 484 kts 116°
2026-05-05 18:17 23.12306 57.62345 31086 ft 484 kts 116°
2026-05-05 18:18 23.09318 57.68879 31066 ft 483 kts 117°
2026-05-05 18:18 23.06326 57.75411 31049 ft 483 kts 117°
2026-05-05 18:19 23.03614 57.82075 31049 ft 484 kts 109°
2026-05-05 18:19 23.02054 57.89118 31056 ft 483 kts 97°
2026-05-05 18:20 23.01696 57.96392 31055 ft 482 kts 89°
2026-05-05 18:20 23.01747 58.03639 31056 ft 482 kts 89°
2026-05-05 18:21 23.01781 58.10885 31050 ft 483 kts 89°
2026-05-05 18:21 23.01785 58.18199 31048 ft 483 kts 89°
2026-05-05 18:22 23.01779 58.25458 31047 ft 483 kts 89°
2026-05-05 18:22 23.01768 58.32720 31048 ft 484 kts 89°
2026-05-05 18:23 23.01834 58.39997 31048 ft 483 kts 87°
2026-05-05 18:23 23.02079 58.47244 31050 ft 482 kts 86°
2026-05-05 18:24 23.02332 58.54512 31044 ft 482 kts 86°
2026-05-05 18:24 23.02576 58.61778 31026 ft 482 kts 86°
2026-05-05 18:25 23.02814 58.69019 31005 ft 483 kts 87°
2026-05-05 18:25 23.03048 58.76282 30971 ft 483 kts 87°
2026-05-05 18:26 23.03282 58.83566 30989 ft 483 kts 87°
2026-05-05 18:26 23.03510 58.90814 31015 ft 483 kts 87°
2026-05-05 18:27 23.03736 58.98095 31054 ft 483 kts 87°
2026-05-05 18:27 23.03954 59.05341 31064 ft 483 kts 87°
2026-05-05 18:28 23.04273 59.16248 30980 ft 483 kts 87°
2026-05-05 18:28 23.04482 59.23538 30913 ft 484 kts 87°
2026-05-05 18:29 23.04690 59.30831 30865 ft 483 kts 87°
2026-05-05 18:29 23.04890 59.38072 30847 ft 484 kts 87°
2026-05-05 18:30 23.05015 59.45384 30841 ft 484 kts 88°
2026-05-05 18:30 23.05118 59.52687 30835 ft 485 kts 88°
2026-05-05 18:31 23.05225 59.59973 30830 ft 486 kts 88°
2026-05-05 18:31 23.05332 59.67300 30825 ft 486 kts 88°
2026-05-05 18:32 23.05439 59.74629 30829 ft 486 kts 88°
2026-05-05 18:32 23.05541 59.81930 30834 ft 485 kts 88°
2026-05-05 18:33 23.05402 59.89242 30838 ft 486 kts 94°
2026-05-05 18:33 23.04527 59.96468 30836 ft 487 kts 100°
2026-05-05 18:34 23.03213 60.03692 30835 ft 487 kts 101°
2026-05-05 18:34 23.01893 60.10849 30834 ft 487 kts 101°
2026-05-05 18:35 23.00575 60.18053 30831 ft 488 kts 100°
2026-05-05 18:35 22.99257 60.25262 30825 ft 488 kts 100°
2026-05-05 18:36 22.97938 60.32468 30822 ft 488 kts 100°
2026-05-05 18:36 22.96610 60.39704 30819 ft 488 kts 101°
2026-05-05 18:37 22.95282 60.46920 30816 ft 488 kts 100°
2026-05-05 18:37 22.93955 60.54113 30820 ft 488 kts 100°
2026-05-05 18:38 22.92621 60.61323 30821 ft 489 kts 100°
2026-05-05 18:38 22.91284 60.68537 30818 ft 489 kts 101°
2026-05-05 18:39 22.89943 60.75752 30820 ft 490 kts 101°
2026-05-05 18:39 22.88600 60.82957 30828 ft 489 kts 101°
2026-05-05 18:40 22.87253 60.90160 30834 ft 490 kts 101°
2026-05-05 18:40 22.85898 60.97387 30833 ft 489 kts 101°
2026-05-05 18:41 22.84544 61.04601 30834 ft 489 kts 101°
2026-05-05 18:41 22.83187 61.11811 30834 ft 489 kts 101°
2026-05-05 18:42 22.81822 61.19036 30834 ft 490 kts 101°
2026-05-05 18:42 22.80455 61.26252 30832 ft 490 kts 101°
2026-05-05 18:43 22.79078 61.33503 30833 ft 491 kts 101°
2026-05-05 18:43 22.77707 61.40709 30836 ft 491 kts 101°
2026-05-05 18:44 22.76329 61.47931 30836 ft 491 kts 100°
2026-05-05 18:44 22.74954 61.55123 30837 ft 491 kts 101°
2026-05-05 18:45 22.73561 61.62382 30836 ft 491 kts 100°
2026-05-05 18:45 22.72172 61.69608 30837 ft 491 kts 101°
2026-05-05 18:46 22.70785 61.76802 30836 ft 491 kts 101°
2026-05-05 18:46 22.69385 61.84050 30836 ft 491 kts 101°
2026-05-05 18:47 22.67992 61.91239 30837 ft 490 kts 101°
2026-05-05 18:47 22.66589 61.98464 30830 ft 490 kts 101°
2026-05-05 18:48 22.65191 62.05642 30830 ft 490 kts 101°
2026-05-05 18:48 22.63784 62.12848 30833 ft 491 kts 101°
2026-05-05 18:49 22.62371 62.20072 30833 ft 491 kts 101°
2026-05-05 18:49 22.60953 62.27303 30842 ft 491 kts 101°
2026-05-05 18:50 22.59534 62.34519 30840 ft 491 kts 101°
2026-05-05 18:50 22.58113 62.41729 30839 ft 490 kts 101°
2026-05-05 18:51 22.56694 62.48909 30835 ft 490 kts 101°
2026-05-05 18:51 22.55272 62.56084 30831 ft 490 kts 101°
2026-05-05 18:52 22.53843 62.63282 30832 ft 490 kts 101°
2026-05-05 18:52 22.52414 62.70464 30829 ft 490 kts 101°
2026-05-05 18:53 22.50984 62.77638 30829 ft 490 kts 101°
2026-05-05 18:53 22.49541 62.84853 30826 ft 490 kts 101°
2026-05-05 18:54 22.48102 62.92033 30829 ft 490 kts 101°
2026-05-05 18:54 22.46668 62.99176 30831 ft 490 kts 101°
2026-05-05 18:55 22.45180 63.06380 30832 ft 490 kts 103°
2026-05-05 18:55 22.43152 63.13367 30831 ft 491 kts 110°
2026-05-05 18:56 22.40405 63.20108 30832 ft 490 kts 115°
2026-05-05 18:56 22.37419 63.26732 30835 ft 490 kts 115°
2026-05-05 18:57 22.34439 63.33345 30833 ft 490 kts 115°
2026-05-05 18:57 22.31465 63.39961 30834 ft 490 kts 115°
2026-05-05 18:58 22.28499 63.46561 30834 ft 490 kts 115°
2026-05-05 18:58 22.25545 63.53131 30839 ft 490 kts 115°
2026-05-05 18:59 22.22570 63.59737 30840 ft 489 kts 115°
2026-05-05 18:59 22.19595 63.66338 30840 ft 489 kts 115°
2026-05-05 19:00 22.16624 63.72918 30841 ft 489 kts 115°
2026-05-05 19:00 22.13632 63.79538 30839 ft 489 kts 115°
2026-05-05 19:01 22.10657 63.86109 30838 ft 489 kts 115°
2026-05-05 19:01 22.07679 63.92680 30837 ft 489 kts 115°
2026-05-05 19:02 22.04700 63.99245 30837 ft 489 kts 115°
2026-05-05 19:02 22.01723 64.05796 30838 ft 488 kts 115°
2026-05-05 19:03 21.98724 64.12386 30843 ft 488 kts 115°
2026-05-05 19:03 21.95736 64.18945 30851 ft 488 kts 115°
2026-05-05 19:04 21.92745 64.25502 30855 ft 488 kts 115°
2026-05-05 19:04 21.89747 64.32066 30856 ft 488 kts 115°
2026-05-05 19:05 21.86757 64.38605 30857 ft 488 kts 115°
2026-05-05 19:05 21.83760 64.45153 30856 ft 488 kts 115°
2026-05-05 19:06 21.80769 64.51674 30856 ft 488 kts 115°
2026-05-05 19:06 21.77771 64.58204 30855 ft 487 kts 115°
2026-05-05 19:07 21.74754 64.64765 30854 ft 487 kts 115°
2026-05-05 19:07 21.71762 64.71267 30853 ft 487 kts 115°
2026-05-05 19:08 21.68763 64.77775 30852 ft 486 kts 115°
2026-05-05 19:08 21.65745 64.84317 30848 ft 486 kts 115°
2026-05-05 19:09 21.62755 64.90786 30846 ft 486 kts 115°
2026-05-05 19:09 21.59735 64.97316 30844 ft 487 kts 115°
2026-05-05 19:10 21.56717 65.03830 30845 ft 487 kts 115°
2026-05-05 19:10 21.53710 65.10315 30846 ft 486 kts 115°
2026-05-05 19:11 21.50710 65.16775 30847 ft 486 kts 115°
2026-05-05 19:11 21.47686 65.23280 30849 ft 486 kts 115°
2026-05-05 19:12 21.44675 65.29749 30848 ft 485 kts 115°
2026-05-05 19:12 21.41655 65.36229 30848 ft 485 kts 115°
2026-05-05 19:13 21.38636 65.42700 30851 ft 485 kts 116°
2026-05-05 19:13 21.35617 65.49164 30852 ft 485 kts 115°
2026-05-05 19:14 21.32593 65.55627 30854 ft 485 kts 115°
2026-05-05 19:14 21.29568 65.62085 30854 ft 485 kts 115°
2026-05-05 19:15 21.26547 65.68533 30854 ft 485 kts 116°
2026-05-05 19:15 21.23516 65.74989 30854 ft 485 kts 116°
2026-05-05 19:16 21.20489 65.81430 30854 ft 484 kts 116°
2026-05-05 19:16 21.17478 65.87833 30855 ft 484 kts 116°
2026-05-05 19:17 21.14430 65.94308 30854 ft 484 kts 116°
2026-05-05 19:17 21.11406 66.00726 30855 ft 484 kts 116°
2026-05-05 19:18 21.08449 66.07194 30854 ft 484 kts 115°
2026-05-05 19:18 21.05521 66.13662 30856 ft 484 kts 115°
2026-05-05 19:19 21.02580 66.20139 30856 ft 484 kts 115°
2026-05-05 19:19 20.99621 66.26640 30856 ft 484 kts 115°
2026-05-05 19:20 20.96691 66.33068 30856 ft 484 kts 115°
2026-05-05 19:20 20.93741 66.39529 30856 ft 483 kts 115°
2026-05-05 19:21 20.90793 66.45979 30860 ft 483 kts 115°
2026-05-05 19:21 20.87834 66.52445 30865 ft 483 kts 115°
2026-05-05 19:22 20.84891 66.58868 30871 ft 483 kts 115°
2026-05-05 19:22 20.81937 66.65306 30875 ft 483 kts 115°
2026-05-05 19:23 20.78976 66.71756 30877 ft 483 kts 115°
2026-05-05 19:23 20.76031 66.78158 30877 ft 483 kts 115°
2026-05-05 19:24 20.73073 66.84586 30876 ft 483 kts 115°
2026-05-05 19:24 20.70121 66.90991 30876 ft 482 kts 115°
2026-05-05 19:25 20.67160 66.97404 30871 ft 482 kts 115°
2026-05-05 19:25 20.64186 67.03840 30867 ft 482 kts 115°
2026-05-05 19:26 20.61217 67.10259 30865 ft 482 kts 115°
2026-05-05 19:26 20.58255 67.16654 30866 ft 482 kts 115°
2026-05-05 19:27 20.55269 67.23096 30863 ft 482 kts 115°
2026-05-05 19:27 20.52309 67.29472 30860 ft 481 kts 115°
2026-05-05 19:28 20.49326 67.35889 30858 ft 482 kts 115°
2026-05-05 19:28 20.46352 67.42278 30857 ft 482 kts 115°
2026-05-05 19:29 20.43397 67.48622 30856 ft 482 kts 115°
2026-05-05 19:29 20.40417 67.55011 30857 ft 481 kts 115°
2026-05-05 19:30 20.37445 67.61375 30862 ft 481 kts 115°
2026-05-05 19:30 20.34456 67.67770 30865 ft 481 kts 116°
2026-05-05 19:31 20.31474 67.74140 30867 ft 481 kts 116°
2026-05-05 19:31 20.28503 67.80479 30869 ft 481 kts 116°
2026-05-05 19:32 20.25503 67.86873 30871 ft 481 kts 116°
2026-05-05 19:32 20.22539 67.93186 30874 ft 480 kts 116°
2026-05-05 19:33 20.19533 67.99577 30873 ft 480 kts 116°
2026-05-05 19:33 20.16546 68.05923 30871 ft 480 kts 116°
2026-05-05 19:34 20.13555 68.12270 31128 ft 481 kts 116°
2026-05-05 19:34 20.12048 68.15466 31323 ft 480 kts 116°
2026-05-05 19:35 20.09065 68.21785 31717 ft 479 kts 116°
2026-05-05 19:35 20.07564 68.24960 31913 ft 478 kts 116°
2026-05-05 19:35 20.06080 68.28096 32091 ft 478 kts 116°
2026-05-05 19:35 20.04579 68.31268 32260 ft 478 kts 116°
2026-05-05 19:36 20.03095 68.34405 32433 ft 478 kts 116°
2026-05-05 19:36 20.01597 68.37570 32628 ft 477 kts 116°
2026-05-05 19:36 20.00123 68.40682 32821 ft 476 kts 116°
2026-05-05 19:37 19.97139 68.46976 32874 ft 476 kts 116°
2026-05-05 19:37 19.94156 68.53259 32875 ft 476 kts 116°
2026-05-05 19:38 19.91179 68.59521 32875 ft 475 kts 116°
2026-05-05 19:38 19.88217 68.65744 32877 ft 475 kts 116°
2026-05-05 19:39 19.85229 68.72019 32876 ft 476 kts 116°
2026-05-05 19:39 19.82250 68.78268 32876 ft 476 kts 116°
2026-05-05 19:40 19.79253 68.84548 32875 ft 476 kts 116°
2026-05-05 19:40 19.76269 68.90793 32876 ft 476 kts 116°
2026-05-05 19:41 19.73265 68.97070 32875 ft 476 kts 116°
2026-05-05 19:41 19.70280 69.03301 32875 ft 477 kts 116°
2026-05-05 19:42 19.67263 69.09595 32869 ft 476 kts 116°
2026-05-05 19:42 19.64274 69.15823 32862 ft 475 kts 116°
2026-05-05 19:43 19.61276 69.22066 32854 ft 475 kts 116°
2026-05-05 19:43 19.58284 69.28296 32855 ft 476 kts 116°
2026-05-05 19:44 19.55291 69.34511 32853 ft 476 kts 116°
2026-05-05 19:44 19.52351 69.40827 32854 ft 476 kts 115°
2026-05-05 19:45 19.49468 69.47150 32855 ft 476 kts 115°
2026-05-05 19:45 19.46589 69.53449 32855 ft 476 kts 115°
2026-05-05 19:46 19.43695 69.59762 32856 ft 476 kts 115°
2026-05-05 19:46 19.40818 69.66026 32856 ft 475 kts 115°
2026-05-05 19:47 19.37935 69.72295 32860 ft 475 kts 115°
2026-05-05 19:47 19.35036 69.78591 32866 ft 475 kts 115°
2026-05-05 19:48 19.32158 69.84834 32869 ft 475 kts 116°
2026-05-05 19:48 19.29249 69.91138 32869 ft 475 kts 116°
2026-05-05 19:49 19.26347 69.97417 32870 ft 475 kts 115°
2026-05-05 19:49 19.23444 70.03691 32872 ft 475 kts 115°
2026-05-05 19:50 19.20545 70.09954 32874 ft 474 kts 115°
2026-05-05 19:50 19.17660 70.16180 32873 ft 474 kts 115°
2026-05-05 19:51 19.14751 70.22453 32875 ft 474 kts 115°
2026-05-05 19:51 19.11853 70.28690 32876 ft 474 kts 115°
2026-05-05 19:52 19.08960 70.34911 32877 ft 474 kts 115°
2026-05-05 19:52 19.06048 70.41164 32877 ft 475 kts 115°
2026-05-05 19:53 19.03132 70.47422 32874 ft 475 kts 115°
2026-05-05 19:53 19.00215 70.53679 32865 ft 474 kts 115°
2026-05-05 19:54 18.97298 70.59924 32860 ft 473 kts 115°
2026-05-05 19:54 18.94380 70.66163 32856 ft 474 kts 116°
2026-05-05 19:55 18.91462 70.72400 32858 ft 474 kts 116°
2026-05-05 19:55 18.88543 70.78629 32857 ft 474 kts 116°
2026-05-05 19:56 18.85632 70.84840 32856 ft 474 kts 116°
2026-05-05 19:56 18.82711 70.91062 32857 ft 473 kts 116°
2026-05-05 19:57 18.79793 70.97270 32857 ft 473 kts 116°
2026-05-05 19:57 18.76866 71.03489 32857 ft 474 kts 116°
2026-05-05 19:58 18.73932 71.09719 32857 ft 475 kts 116°
2026-05-05 19:58 18.70994 71.15950 32857 ft 475 kts 116°
2026-05-05 19:59 18.68057 71.22174 32857 ft 475 kts 116°
2026-05-05 19:59 18.65128 71.28378 32858 ft 474 kts 116°
2026-05-05 20:00 18.62189 71.34590 32857 ft 475 kts 116°
2026-05-05 20:00 18.59233 71.40833 32857 ft 474 kts 116°
2026-05-05 20:01 18.56285 71.47053 32857 ft 474 kts 116°
2026-05-05 20:01 18.53341 71.53260 32858 ft 475 kts 116°
2026-05-05 20:02 18.50394 71.59465 32858 ft 475 kts 116°
2026-05-05 20:02 18.47439 71.65680 32860 ft 475 kts 116°
2026-05-05 20:03 18.44482 71.71894 32861 ft 475 kts 116°
2026-05-05 20:03 18.41520 71.78113 32863 ft 474 kts 116°
2026-05-05 20:04 18.38558 71.84323 32869 ft 475 kts 116°
2026-05-05 20:04 18.35605 71.90511 32869 ft 475 kts 116°
2026-05-05 20:05 18.32643 71.96710 32872 ft 475 kts 116°
2026-05-05 20:05 18.29660 72.02946 32875 ft 475 kts 116°
2026-05-05 20:06 18.26698 72.09131 32878 ft 475 kts 116°
2026-05-05 20:06 18.23716 72.15352 32878 ft 475 kts 116°
2026-05-05 20:07 18.20745 72.21545 32877 ft 475 kts 116°
2026-05-05 20:07 18.17785 72.27711 32871 ft 474 kts 116°
2026-05-05 20:08 18.14811 72.33897 32867 ft 475 kts 116°
2026-05-05 20:08 18.11821 72.40109 32866 ft 475 kts 116°
2026-05-05 20:09 18.08838 72.46301 32866 ft 476 kts 116°
2026-05-05 20:09 18.05840 72.52518 32862 ft 476 kts 116°
2026-05-05 20:10 18.02864 72.58687 32858 ft 475 kts 116°
2026-05-05 20:10 17.99884 72.64854 32859 ft 475 kts 116°
2026-05-05 20:11 17.96906 72.71013 32858 ft 475 kts 117°
2026-05-05 20:11 17.93911 72.77201 32858 ft 475 kts 117°
2026-05-05 20:12 17.90925 72.83364 32857 ft 475 kts 117°
2026-05-05 20:12 17.87914 72.89573 32858 ft 476 kts 117°
2026-05-05 20:13 17.84919 72.95740 32858 ft 475 kts 117°
2026-05-05 20:13 17.81929 73.01894 32860 ft 475 kts 117°
2026-05-05 20:14 17.78928 73.08068 32865 ft 474 kts 117°
2026-05-05 20:14 17.75939 73.14212 32872 ft 473 kts 117°
2026-05-05 20:15 17.72949 73.20348 32882 ft 473 kts 117°
2026-05-05 20:15 17.70000 73.26382 32885 ft 473 kts 117°
2026-05-05 20:16 17.67000 73.32511 32891 ft 474 kts 117°
2026-05-05 20:16 17.63985 73.38669 32890 ft 473 kts 117°
2026-05-05 20:17 17.60986 73.44794 32890 ft 473 kts 117°
2026-05-05 20:17 17.57985 73.50915 32886 ft 472 kts 117°
2026-05-05 20:18 17.54988 73.57027 32898 ft 472 kts 117°
2026-05-05 20:18 17.51995 73.63122 32921 ft 471 kts 117°
2026-05-05 20:19 17.48998 73.69220 32950 ft 471 kts 117°
2026-05-05 20:19 17.46004 73.75304 32983 ft 470 kts 117°
2026-05-05 20:20 17.42998 73.81409 32996 ft 470 kts 117°
2026-05-05 20:20 17.40020 73.87453 32992 ft 470 kts 117°
2026-05-05 20:21 17.37026 73.93521 32985 ft 469 kts 117°
2026-05-05 20:21 17.34035 73.99577 32971 ft 470 kts 117°
2026-05-05 20:22 17.31031 74.05658 32967 ft 470 kts 117°
2026-05-05 20:22 17.28021 74.11745 32964 ft 470 kts 117°
2026-05-05 20:23 17.25033 74.17783 32961 ft 469 kts 117°
2026-05-05 20:23 17.22030 74.23845 32956 ft 469 kts 117°
2026-05-05 20:24 17.19044 74.29858 32953 ft 469 kts 118°
2026-05-05 20:24 17.16048 74.35889 32952 ft 469 kts 117°
2026-05-05 20:25 17.13034 74.41955 32953 ft 469 kts 117°
2026-05-05 20:25 17.10043 74.47972 32953 ft 469 kts 117°
2026-05-05 20:26 17.07023 74.54044 32955 ft 469 kts 117°
2026-05-05 20:26 17.04022 74.60070 32960 ft 468 kts 117°
2026-05-05 20:27 17.01009 74.66117 32966 ft 468 kts 118°
2026-05-05 20:27 16.98021 74.72107 32973 ft 468 kts 118°
2026-05-05 20:28 16.95006 74.78145 32975 ft 468 kts 118°
2026-05-05 20:28 16.92011 74.84139 32971 ft 468 kts 118°
2026-05-05 20:29 16.88993 74.90173 32965 ft 468 kts 118°
2026-05-05 20:29 16.85984 74.96185 32961 ft 468 kts 118°
2026-05-05 20:30 16.82967 75.02207 32951 ft 468 kts 118°
2026-05-05 20:30 16.79957 75.08210 32942 ft 469 kts 118°
2026-05-05 20:31 16.76930 75.14243 32936 ft 469 kts 118°
2026-05-05 20:31 16.73913 75.20248 32937 ft 469 kts 118°
2026-05-05 20:32 16.70897 75.26247 32932 ft 469 kts 118°
2026-05-05 20:32 16.67866 75.32269 32936 ft 468 kts 118°
2026-05-05 20:33 16.64863 75.38236 32932 ft 468 kts 118°
2026-05-05 20:33 16.61824 75.44267 32929 ft 468 kts 118°
2026-05-05 20:34 16.58916 75.50320 32925 ft 468 kts 116°
2026-05-05 20:34 16.56101 75.56410 32922 ft 469 kts 116°
2026-05-05 20:35 16.53272 75.62530 32917 ft 469 kts 116°
2026-05-05 20:35 16.50442 75.68641 32918 ft 469 kts 116°
2026-05-05 20:36 16.47608 75.74754 32920 ft 469 kts 116°
2026-05-05 20:36 16.44779 75.80853 32920 ft 468 kts 116°
2026-05-05 20:37 16.41953 75.86942 32914 ft 468 kts 116°
2026-05-05 20:37 16.39112 75.93059 32915 ft 468 kts 116°
2026-05-05 20:38 16.36283 75.99140 32911 ft 468 kts 116°
2026-05-05 20:38 16.33423 76.05226 32909 ft 468 kts 117°
2026-05-05 20:39 16.30562 76.11282 32908 ft 468 kts 117°
2026-05-05 20:39 16.27680 76.17384 32910 ft 468 kts 116°
2026-05-05 20:40 16.24818 76.23445 32913 ft 469 kts 116°
2026-05-05 20:40 16.21946 76.29527 32912 ft 468 kts 117°
2026-05-05 20:41 16.19076 76.35594 32909 ft 468 kts 117°
2026-05-05 20:41 16.16202 76.41665 32903 ft 468 kts 117°
2026-05-05 20:42 16.13322 76.47744 32907 ft 469 kts 117°
2026-05-05 20:42 16.10451 76.53798 32910 ft 470 kts 116°
2026-05-05 20:43 16.07550 76.59913 32907 ft 470 kts 116°
2026-05-05 20:43 16.04667 76.65985 32901 ft 469 kts 117°
2026-05-05 20:44 16.01796 76.72025 32897 ft 469 kts 117°
2026-05-05 20:44 15.98899 76.78114 32888 ft 469 kts 117°
2026-05-05 20:45 15.94573 76.87199 32884 ft 468 kts 117°
2026-05-05 20:45 15.91697 76.93233 32891 ft 468 kts 117°
2026-05-05 20:46 15.88791 76.99321 32888 ft 468 kts 117°
2026-05-05 20:46 15.85903 77.05370 32887 ft 470 kts 117°
2026-05-05 20:47 15.82991 77.11465 32887 ft 469 kts 117°
2026-05-05 20:47 15.80095 77.17520 32886 ft 469 kts 117°
2026-05-05 20:48 15.77205 77.23556 32881 ft 468 kts 117°
2026-05-05 20:48 15.74314 77.29592 32880 ft 467 kts 117°
2026-05-05 20:49 15.71420 77.35626 32874 ft 468 kts 117°
2026-05-05 20:49 15.68549 77.41644 32872 ft 467 kts 117°
2026-05-05 20:50 15.65680 77.47675 32869 ft 467 kts 117°
2026-05-05 20:50 15.62791 77.53737 32870 ft 468 kts 117°
2026-05-05 20:51 15.59906 77.59788 32869 ft 467 kts 117°
2026-05-05 20:51 15.57026 77.65820 32866 ft 467 kts 117°
2026-05-05 20:52 15.54141 77.71859 32863 ft 467 kts 117°
2026-05-05 20:52 15.51264 77.77874 32857 ft 466 kts 117°
2026-05-05 20:53 15.48385 77.83888 32854 ft 466 kts 117°
2026-05-05 20:53 15.45505 77.89902 32852 ft 466 kts 117°
2026-05-05 20:54 15.42628 77.95911 32852 ft 466 kts 117°
2026-05-05 20:54 15.39745 78.01926 32852 ft 466 kts 117°
2026-05-05 20:55 15.36867 78.07923 32844 ft 466 kts 117°
2026-05-05 20:55 15.33971 78.13897 32839 ft 465 kts 118°
2026-05-05 20:56 15.31056 78.19849 32830 ft 464 kts 118°
2026-05-05 20:56 15.28145 78.25793 32822 ft 464 kts 118°
2026-05-05 20:57 15.25223 78.31763 32817 ft 464 kts 118°
2026-05-05 20:57 15.22323 78.37685 32816 ft 464 kts 118°
2026-05-05 20:58 15.19393 78.43666 32823 ft 464 kts 118°
2026-05-05 20:58 15.16489 78.49591 32830 ft 464 kts 118°
2026-05-05 20:59 15.13568 78.55541 32837 ft 463 kts 118°
2026-05-05 20:59 15.10658 78.61465 32845 ft 461 kts 118°
2026-05-05 21:00 15.07748 78.67382 32851 ft 461 kts 118°
2026-05-05 21:00 15.04856 78.73260 32860 ft 461 kts 118°
2026-05-05 21:01 15.01939 78.79183 32863 ft 461 kts 118°
2026-05-05 21:01 14.99031 78.85087 32854 ft 460 kts 118°
2026-05-05 21:02 14.96142 78.90951 32846 ft 460 kts 118°
2026-05-05 21:02 14.93240 78.96833 32834 ft 460 kts 118°
2026-05-05 21:03 14.90343 79.02697 32830 ft 460 kts 118°
2026-05-05 21:03 14.87415 79.08623 32822 ft 461 kts 118°
2026-05-05 21:04 14.84503 79.14510 32823 ft 461 kts 118°
2026-05-05 21:04 14.81594 79.20387 32822 ft 461 kts 118°
2026-05-05 21:05 14.78665 79.26301 32821 ft 461 kts 118°
2026-05-05 21:05 14.75755 79.32168 32817 ft 461 kts 118°
2026-05-05 21:06 14.72821 79.38081 32811 ft 461 kts 118°
2026-05-05 21:06 14.69893 79.43977 32810 ft 461 kts 118°
2026-05-05 21:07 14.66965 79.49870 32802 ft 461 kts 118°
2026-05-05 21:07 14.64037 79.55757 32803 ft 461 kts 118°
2026-05-05 21:08 14.61109 79.61640 32797 ft 461 kts 118°
2026-05-05 21:08 14.58181 79.67518 32799 ft 461 kts 118°
2026-05-05 21:09 14.55249 79.73398 32797 ft 461 kts 118°
2026-05-05 21:09 14.52334 79.79239 32797 ft 460 kts 118°
2026-05-05 21:10 14.49397 79.85125 32795 ft 460 kts 118°
2026-05-05 21:10 14.46470 79.90984 32795 ft 461 kts 118°
2026-05-05 21:11 14.43545 79.96836 32783 ft 460 kts 118°
2026-05-05 21:11 14.40606 80.02711 32773 ft 459 kts 119°
2026-05-05 21:12 14.37687 80.08539 32773 ft 459 kts 119°
2026-05-05 21:12 14.34764 80.14368 32774 ft 458 kts 118°
2026-05-05 21:13 14.31827 80.20224 32781 ft 458 kts 118°
2026-05-05 21:13 14.28907 80.26042 32780 ft 458 kts 118°
2026-05-05 21:14 14.25986 80.31861 32787 ft 458 kts 118°
2026-05-05 21:14 14.23060 80.37678 32792 ft 458 kts 118°
2026-05-05 21:15 14.20135 80.43500 32794 ft 458 kts 118°
2026-05-05 21:15 14.17217 80.49294 32794 ft 458 kts 118°
2026-05-05 21:16 14.14282 80.55122 32794 ft 458 kts 118°
2026-05-05 21:16 14.11336 80.60966 32795 ft 458 kts 118°
2026-05-05 21:17 14.08407 80.66775 32793 ft 458 kts 119°
2026-05-05 21:17 14.05465 80.72610 32795 ft 457 kts 119°
2026-05-05 21:18 14.02479 80.78522 32795 ft 457 kts 119°
2026-05-05 21:18 13.99547 80.84335 32795 ft 458 kts 118°
2026-05-05 21:19 13.96704 80.90170 32795 ft 459 kts 118°
2026-05-05 21:19 13.93848 80.96069 32794 ft 459 kts 118°
2026-05-05 21:20 13.90995 81.01944 32795 ft 459 kts 118°
2026-05-05 21:20 13.88142 81.07806 32795 ft 459 kts 118°
2026-05-05 21:21 13.85295 81.13653 32796 ft 457 kts 118°
2026-05-05 21:21 13.82453 81.19483 32797 ft 455 kts 118°
2026-05-05 21:22 13.79616 81.25301 32799 ft 456 kts 118°
2026-05-05 21:22 13.76778 81.31112 32800 ft 456 kts 118°
2026-05-05 21:23 13.73922 81.36963 32805 ft 456 kts 118°
2026-05-05 21:23 13.71091 81.42757 32810 ft 455 kts 118°
2026-05-05 21:24 13.68237 81.48591 32806 ft 455 kts 118°
2026-05-05 21:24 13.65408 81.54379 32800 ft 454 kts 118°
2026-05-05 21:25 13.62594 81.60141 32797 ft 452 kts 118°
2026-05-05 21:25 13.59775 81.65912 32795 ft 451 kts 119°
2026-05-05 21:26 13.56951 81.71683 32794 ft 452 kts 119°
2026-05-05 21:26 13.54133 81.77441 32795 ft 452 kts 119°
2026-05-05 21:27 13.51301 81.83224 32795 ft 452 kts 119°
2026-05-05 21:27 13.48471 81.88999 32795 ft 452 kts 119°
2026-05-05 21:28 13.45661 81.94730 32794 ft 451 kts 119°
2026-05-05 21:28 13.42849 82.00460 32794 ft 450 kts 119°
2026-05-05 21:29 13.40032 82.06197 32796 ft 450 kts 119°
2026-05-05 21:29 13.37203 82.11952 32796 ft 451 kts 119°
2026-05-05 21:30 13.34387 82.17674 32797 ft 451 kts 119°
2026-05-05 21:30 13.31572 82.23398 32796 ft 450 kts 119°
2026-05-05 21:31 13.28752 82.29122 32799 ft 449 kts 118°
2026-05-05 21:31 13.25923 82.34863 32798 ft 449 kts 118°
2026-05-05 21:32 13.23120 82.40550 32797 ft 448 kts 118°
2026-05-05 21:32 13.20297 82.46269 32799 ft 448 kts 118°
2026-05-05 21:33 13.17495 82.51948 32801 ft 448 kts 118°
2026-05-05 21:33 13.14684 82.57635 32800 ft 448 kts 118°
2026-05-05 21:34 13.11865 82.63335 32807 ft 447 kts 118°
2026-05-05 21:34 13.09048 82.69030 32812 ft 446 kts 118°
2026-05-05 21:35 13.06252 82.74676 32814 ft 446 kts 118°
2026-05-05 21:35 13.03449 82.80333 32817 ft 445 kts 118°
2026-05-05 21:36 13.00639 82.86000 32818 ft 445 kts 118°
2026-05-05 21:36 12.97837 82.91648 32818 ft 445 kts 118°
2026-05-05 21:37 12.95023 82.97321 32816 ft 445 kts 118°
2026-05-05 21:37 12.92216 83.02975 32815 ft 446 kts 118°
2026-05-05 21:38 12.89402 83.08636 32807 ft 445 kts 118°
2026-05-05 21:38 12.86610 83.14248 32798 ft 445 kts 118°
2026-05-05 21:39 12.83798 83.19899 32797 ft 445 kts 118°
2026-05-05 21:39 12.80994 83.25530 32795 ft 445 kts 118°
2026-05-05 21:40 12.78174 83.31191 32794 ft 445 kts 118°
2026-05-05 21:40 12.75362 83.36829 32794 ft 447 kts 118°
2026-05-05 21:41 12.72534 83.42499 32795 ft 447 kts 118°
2026-05-05 21:41 12.69700 83.48183 32795 ft 447 kts 118°
2026-05-05 21:42 12.66880 83.53826 32794 ft 447 kts 118°
2026-05-05 21:42 12.64086 83.59513 32795 ft 448 kts 117°
2026-05-05 21:43 12.61345 83.65232 32798 ft 448 kts 117°
2026-05-05 21:43 12.58603 83.70944 32802 ft 448 kts 117°
2026-05-05 21:44 12.55846 83.76681 32806 ft 448 kts 117°
2026-05-05 21:44 12.53094 83.82394 32810 ft 449 kts 117°
2026-05-05 21:45 12.50332 83.88128 32813 ft 450 kts 117°
2026-05-05 21:45 12.47561 83.93876 32813 ft 450 kts 117°
2026-05-05 21:46 12.44798 83.99600 32814 ft 450 kts 117°
2026-05-05 21:46 12.42047 84.05296 32814 ft 450 kts 117°
2026-05-05 21:47 12.39267 84.11052 32813 ft 450 kts 117°
2026-05-05 21:47 12.36511 84.16753 32813 ft 450 kts 117°
2026-05-05 21:48 12.33728 84.22508 32812 ft 449 kts 117°
2026-05-05 21:48 12.30959 84.28230 32813 ft 450 kts 117°
2026-05-05 21:49 12.28202 84.33922 32812 ft 449 kts 117°
2026-05-05 21:49 12.25422 84.39656 32812 ft 450 kts 117°
2026-05-05 21:50 12.22638 84.45394 32815 ft 450 kts 117°
2026-05-05 21:50 12.19857 84.51125 32812 ft 450 kts 117°
2026-05-05 21:51 12.17147 84.56705 32813 ft 450 kts 117°
2026-05-05 21:51 12.14378 84.62406 32812 ft 450 kts 117°
2026-05-05 21:52 12.10209 84.70978 32799 ft 449 kts 117°
2026-05-05 21:53 12.07433 84.76683 32795 ft 449 kts 117°
2026-05-05 21:53 12.04664 84.82372 32794 ft 449 kts 117°
2026-05-05 21:54 12.01888 84.88068 32791 ft 449 kts 117°
2026-05-05 21:54 11.99091 84.93800 32792 ft 449 kts 117°
2026-05-05 21:55 11.96320 84.99483 32797 ft 448 kts 117°
2026-05-05 21:55 11.93540 85.05174 32806 ft 448 kts 117°
2026-05-05 21:56 11.90772 85.10843 32816 ft 447 kts 117°
2026-05-05 21:56 11.87996 85.16522 32815 ft 448 kts 117°
2026-05-05 21:57 11.85211 85.22218 32820 ft 448 kts 117°
2026-05-05 21:57 11.82427 85.27906 32815 ft 449 kts 117°
2026-05-05 21:58 11.79635 85.33608 32818 ft 450 kts 117°
2026-05-05 21:58 11.76845 85.39304 32817 ft 449 kts 117°
2026-05-05 21:59 11.74049 85.45005 32817 ft 450 kts 117°
2026-05-05 21:59 11.71248 85.50715 32816 ft 449 kts 117°
2026-05-05 22:00 11.68466 85.56383 32817 ft 449 kts 117°
2026-05-05 22:00 11.65671 85.62070 32817 ft 449 kts 116°
2026-05-05 22:01 11.62874 85.67760 32817 ft 449 kts 117°
2026-05-05 22:01 11.60087 85.73431 32818 ft 449 kts 117°
2026-05-05 22:02 11.57283 85.79125 32816 ft 449 kts 117°
2026-05-05 22:02 11.54475 85.84826 32816 ft 449 kts 116°
2026-05-05 22:03 11.51682 85.90499 32814 ft 450 kts 116°
2026-05-05 22:03 11.48877 85.96189 32815 ft 450 kts 116°
2026-05-05 22:04 11.46065 86.01884 32814 ft 451 kts 116°
2026-05-05 22:04 11.43245 86.07604 32812 ft 450 kts 116°
2026-05-05 22:05 11.40424 86.13318 32812 ft 451 kts 116°
2026-05-05 22:05 11.37617 86.19000 32807 ft 450 kts 116°
2026-05-05 22:06 11.34794 86.24706 32799 ft 451 kts 116°
2026-05-05 22:06 11.31965 86.30424 32796 ft 451 kts 116°
2026-05-05 22:07 11.29140 86.36135 32796 ft 451 kts 116°
2026-05-05 22:07 11.26322 86.41829 32802 ft 451 kts 116°
2026-05-05 22:08 11.23494 86.47535 32805 ft 451 kts 116°
2026-05-05 22:08 11.20674 86.53220 32805 ft 451 kts 116°
2026-05-05 22:09 11.17856 86.58897 32809 ft 450 kts 116°
2026-05-05 22:09 11.15040 86.64572 32812 ft 449 kts 116°
2026-05-05 22:10 11.12225 86.70239 32816 ft 449 kts 116°
2026-05-05 22:10 11.09394 86.75940 32816 ft 448 kts 116°
2026-05-05 22:11 11.06588 86.81583 32816 ft 447 kts 116°
2026-05-05 22:11 11.03791 86.87202 32816 ft 448 kts 116°
2026-05-05 22:12 11.00983 86.92841 32815 ft 448 kts 116°
2026-05-05 22:12 10.98160 86.98508 32813 ft 446 kts 116°
2026-05-05 22:13 10.95362 87.04125 32814 ft 446 kts 116°
2026-05-05 22:13 10.92560 87.09745 32811 ft 446 kts 116°
2026-05-05 22:14 10.89750 87.15380 32811 ft 447 kts 116°
2026-05-05 22:14 10.86942 87.21007 32812 ft 448 kts 116°
2026-05-05 22:15 10.84112 87.26669 32815 ft 448 kts 116°
2026-05-05 22:15 10.81288 87.32317 32813 ft 447 kts 116°
2026-05-05 22:16 10.78486 87.37921 32812 ft 448 kts 116°
2026-05-05 22:16 10.75657 87.43573 32829 ft 449 kts 116°
2026-05-05 22:16 10.74234 87.46418 33220 ft 445 kts 116°
2026-05-05 22:17 10.72850 87.49187 33792 ft 438 kts 116°
2026-05-05 22:17 10.71439 87.52006 34207 ft 434 kts 116°
2026-05-05 22:17 10.70073 87.54736 34464 ft 433 kts 116°
2026-05-05 22:17 10.68717 87.57441 34622 ft 434 kts 116°
2026-05-05 22:18 10.67341 87.60184 34758 ft 435 kts 116°
2026-05-05 22:18 10.64565 87.65720 34799 ft 442 kts 116°
2026-05-05 22:19 10.61762 87.71308 34794 ft 448 kts 116°
2026-05-05 22:19 10.58934 87.76941 34796 ft 449 kts 116°
2026-05-05 22:20 10.56099 87.82587 34795 ft 449 kts 116°
2026-05-05 22:20 10.53259 87.88239 34797 ft 450 kts 116°
2026-05-05 22:21 10.50418 87.93891 34801 ft 450 kts 116°
2026-05-05 22:21 10.47568 87.99557 34809 ft 449 kts 116°
2026-05-05 22:22 10.44708 88.05242 34811 ft 449 kts 116°
2026-05-05 22:22 10.41864 88.10892 34802 ft 448 kts 116°
2026-05-05 22:23 10.39035 88.16509 34796 ft 449 kts 116°
2026-05-05 22:23 10.36190 88.22150 34797 ft 449 kts 116°
2026-05-05 22:24 10.33354 88.27775 34805 ft 450 kts 116°
2026-05-05 22:24 10.30509 88.33415 34810 ft 449 kts 116°
2026-05-05 22:25 10.27669 88.39042 34820 ft 449 kts 116°
2026-05-05 22:25 10.24816 88.44697 34821 ft 450 kts 116°
2026-05-05 22:26 10.21968 88.50333 34816 ft 449 kts 116°
2026-05-05 22:26 10.19226 88.56016 34816 ft 450 kts 114°
2026-05-05 22:27 10.16578 88.61791 34815 ft 450 kts 114°
2026-05-05 22:27 10.13949 88.67533 34816 ft 451 kts 114°
2026-05-05 22:28 10.11299 88.73314 34816 ft 451 kts 114°
2026-05-05 22:28 10.08649 88.79092 34816 ft 451 kts 114°
2026-05-05 22:29 10.06012 88.84837 34817 ft 451 kts 114°
2026-05-05 22:29 10.03360 88.90612 34816 ft 452 kts 114°
2026-05-05 22:30 10.00711 88.96378 34812 ft 453 kts 114°
2026-05-05 22:30 9.98041 89.02189 34801 ft 453 kts 114°
2026-05-05 22:31 9.95360 89.08015 34799 ft 453 kts 114°
2026-05-05 22:31 9.92711 89.13769 34797 ft 452 kts 114°
2026-05-05 22:32 9.90052 89.19546 34796 ft 451 kts 114°
2026-05-05 22:32 9.87410 89.25281 34794 ft 451 kts 114°
2026-05-05 22:33 9.84753 89.31048 34794 ft 451 kts 114°
2026-05-05 22:33 9.82103 89.36794 34798 ft 451 kts 114°
2026-05-05 22:34 9.79450 89.42542 34801 ft 452 kts 114°
2026-05-05 22:34 9.76771 89.48343 34803 ft 451 kts 114°
2026-05-05 22:35 9.74126 89.54069 34806 ft 451 kts 114°
2026-05-05 22:35 9.71473 89.59810 34812 ft 451 kts 114°
2026-05-05 22:36 9.68802 89.65589 34813 ft 451 kts 114°
2026-05-05 22:36 9.66156 89.71308 34815 ft 451 kts 114°
2026-05-05 22:37 9.63496 89.77053 34815 ft 451 kts 114°
2026-05-05 22:37 9.60836 89.82797 34812 ft 451 kts 114°
2026-05-05 22:38 9.58175 89.88539 34813 ft 450 kts 114°
2026-05-05 22:38 9.55509 89.94289 34815 ft 451 kts 114°
2026-05-05 22:39 9.52846 90.00030 34814 ft 451 kts 114°
2026-05-05 22:39 9.50185 90.05768 34815 ft 451 kts 114°
2026-05-05 22:40 9.47512 90.11524 34816 ft 451 kts 114°
2026-05-05 22:40 9.44865 90.17224 34816 ft 450 kts 114°
2026-05-05 22:41 9.42184 90.22991 34815 ft 451 kts 114°
2026-05-05 22:41 9.39526 90.28705 34816 ft 451 kts 114°
2026-05-05 22:42 9.36858 90.34441 34816 ft 450 kts 114°
2026-05-05 22:42 9.34196 90.40162 34816 ft 451 kts 114°
2026-05-05 22:43 9.31511 90.45927 34816 ft 451 kts 114°
2026-05-05 22:43 9.28838 90.51661 34815 ft 450 kts 114°
2026-05-05 22:44 9.26172 90.57383 34816 ft 451 kts 114°
2026-05-05 22:44 9.23485 90.63145 34817 ft 451 kts 114°
2026-05-05 22:45 9.20816 90.68863 34823 ft 450 kts 114°
2026-05-05 22:45 9.18132 90.74613 34833 ft 451 kts 114°
2026-05-05 22:46 9.15469 90.80312 34836 ft 450 kts 114°
2026-05-05 22:46 9.12775 90.86079 34832 ft 451 kts 114°
2026-05-05 22:47 9.10109 90.91782 34829 ft 451 kts 114°
2026-05-05 22:47 9.07426 90.97520 34822 ft 451 kts 114°
2026-05-05 22:48 9.04743 91.03254 34816 ft 452 kts 114°
2026-05-05 22:48 9.02060 91.08981 34814 ft 452 kts 114°
2026-05-05 22:49 8.99363 91.14735 34815 ft 451 kts 114°
2026-05-05 22:49 8.96673 91.20479 34814 ft 452 kts 114°
2026-05-05 22:50 8.93992 91.26197 34814 ft 451 kts 114°
2026-05-05 22:50 8.91312 91.31911 34813 ft 451 kts 114°
2026-05-05 22:51 8.88609 91.37669 34813 ft 451 kts 114°
2026-05-05 22:51 8.85935 91.43365 34815 ft 451 kts 114°
2026-05-05 22:52 8.83240 91.49101 34813 ft 451 kts 114°
2026-05-05 22:52 8.80561 91.54800 34813 ft 450 kts 114°
2026-05-05 22:53 8.77879 91.60508 34814 ft 450 kts 114°
2026-05-05 22:53 8.75176 91.66253 34815 ft 450 kts 114°
2026-05-05 22:54 8.72505 91.71929 34813 ft 449 kts 114°
2026-05-05 22:54 8.69811 91.77653 34815 ft 449 kts 114°
2026-05-05 22:55 8.67134 91.83337 34813 ft 449 kts 114°
2026-05-05 22:55 8.64448 91.89042 34815 ft 450 kts 114°
2026-05-05 22:56 8.61762 91.94740 34816 ft 449 kts 114°
2026-05-05 22:56 8.59078 92.00444 34820 ft 449 kts 113°
2026-05-05 22:57 8.56536 92.06145 34831 ft 448 kts 112°
2026-05-05 22:57 8.54001 92.11907 34836 ft 449 kts 112°
2026-05-05 22:58 8.51456 92.17661 34838 ft 448 kts 112°
2026-05-05 22:58 8.48903 92.23429 34841 ft 449 kts 112°
2026-05-05 22:59 8.46357 92.29169 34840 ft 449 kts 112°
2026-05-05 22:59 8.43810 92.34911 34840 ft 448 kts 112°
2026-05-05 23:00 8.39984 92.43533 34839 ft 448 kts 112°
2026-05-05 23:00 8.37440 92.49259 34838 ft 448 kts 112°
2026-05-05 23:01 8.34885 92.55006 34839 ft 448 kts 112°
2026-05-05 23:01 8.32357 92.60693 34838 ft 448 kts 112°
2026-05-05 23:02 8.29808 92.66425 34838 ft 448 kts 112°
2026-05-05 23:02 8.27256 92.72159 34836 ft 448 kts 112°
2026-05-05 23:03 8.24709 92.77880 34836 ft 447 kts 112°
2026-05-05 23:03 8.22168 92.83586 34837 ft 447 kts 112°
2026-05-05 23:04 8.19607 92.89333 34827 ft 447 kts 112°
2026-05-05 23:04 8.17075 92.95016 34821 ft 446 kts 112°
2026-05-05 23:05 8.14528 93.00725 34818 ft 446 kts 112°
2026-05-05 23:05 8.11983 93.06428 34817 ft 447 kts 112°
2026-05-05 23:06 8.09429 93.12154 34816 ft 446 kts 112°
2026-05-05 23:06 8.06889 93.17844 34820 ft 446 kts 112°
2026-05-05 23:07 8.04331 93.23567 34819 ft 446 kts 112°
2026-05-05 23:07 8.01789 93.29256 34817 ft 446 kts 112°
2026-05-05 23:08 7.99250 93.34941 34825 ft 445 kts 112°
2026-05-05 23:08 7.96717 93.40611 34833 ft 445 kts 111°
2026-05-05 23:09 7.94655 93.46487 34835 ft 443 kts 103°
2026-05-05 23:09 7.93468 93.52568 34835 ft 442 kts 95°
2026-05-05 23:10 7.93170 93.58752 34835 ft 441 kts 87°
2026-05-05 23:10 7.93492 93.64890 34835 ft 440 kts 85°
2026-05-05 23:11 7.93858 93.71058 34836 ft 440 kts 86°
2026-05-05 23:11 7.94216 93.77213 34836 ft 440 kts 86°
2026-05-05 23:12 7.94569 93.83373 34835 ft 440 kts 86°
2026-05-05 23:12 7.94918 93.89528 34836 ft 440 kts 86°
2026-05-05 23:13 7.95267 93.95693 34835 ft 441 kts 86°
2026-05-05 23:13 7.95614 94.01839 34836 ft 441 kts 86°
2026-05-05 23:14 7.95961 94.07984 34834 ft 441 kts 86°
2026-05-05 23:14 7.96307 94.14154 34835 ft 440 kts 86°
2026-05-05 23:15 7.96653 94.20327 34833 ft 441 kts 86°
2026-05-05 23:15 7.96997 94.26509 34835 ft 442 kts 86°
2026-05-05 23:16 7.97339 94.32678 34833 ft 442 kts 86°
2026-05-05 23:16 7.97682 94.38846 34836 ft 442 kts 86°
2026-05-05 23:17 7.97964 94.45044 34835 ft 442 kts 87°
2026-05-05 23:17 7.98107 94.51221 34835 ft 442 kts 88°
2026-05-05 23:18 7.98250 94.57446 34833 ft 443 kts 88°
2026-05-05 23:18 7.98400 94.63645 34835 ft 443 kts 88°
2026-05-05 23:19 7.98551 94.69807 34834 ft 443 kts 88°
2026-05-05 23:19 7.98706 94.76063 34836 ft 444 kts 88°
2026-05-05 23:20 7.98858 94.82261 34846 ft 444 kts 88°
2026-05-05 23:20 7.99012 94.88499 34853 ft 444 kts 88°
2026-05-05 23:21 7.99162 94.94709 34855 ft 444 kts 88°
2026-05-05 23:21 7.99312 95.00909 34858 ft 444 kts 87°
2026-05-05 23:22 7.99463 95.07141 34860 ft 444 kts 88°
2026-05-05 23:22 7.99611 95.13357 34859 ft 445 kts 88°
2026-05-05 23:23 7.99136 95.19581 34852 ft 448 kts 104°
2026-05-05 23:23 7.97983 95.22498 34856 ft 454 kts 116°
2026-05-05 23:23 7.96220 95.25144 34858 ft 460 kts 128°
2026-05-05 23:24 7.93903 95.27405 34855 ft 466 kts 140°
2026-05-05 23:24 7.91153 95.29152 34848 ft 471 kts 152°
2026-05-05 23:24 7.88060 95.30317 34843 ft 475 kts 163°
2026-05-05 23:24 7.84778 95.30832 34838 ft 478 kts 175°
2026-05-05 23:25 7.81430 95.30672 34838 ft 481 kts 187°
2026-05-05 23:25 7.78203 95.29851 34834 ft 483 kts 199°
2026-05-05 23:25 7.75171 95.28389 34838 ft 484 kts 211°
2026-05-05 23:25 7.72462 95.26329 34837 ft 485 kts 223°
2026-05-05 23:26 7.70220 95.23772 34835 ft 486 kts 234°
2026-05-05 23:26 7.68525 95.20809 34833 ft 486 kts 246°
2026-05-05 23:26 7.67453 95.17575 34834 ft 486 kts 258°
2026-05-05 23:26 7.67044 95.14238 34835 ft 484 kts 270°
2026-05-05 23:27 7.67310 95.10827 34837 ft 483 kts 282°
2026-05-05 23:27 7.68234 95.07599 34836 ft 481 kts 294°
2026-05-05 23:27 7.69770 95.04643 34835 ft 477 kts 306°
2026-05-05 23:27 7.71839 95.02087 34836 ft 474 kts 317°
2026-05-05 23:28 7.74391 94.99992 34839 ft 471 kts 329°
2026-05-05 23:28 7.77300 94.98474 34836 ft 467 kts 341°
2026-05-05 23:28 7.80444 94.97595 34836 ft 465 kts 353°
2026-05-05 23:28 7.83637 94.97391 34838 ft 462 kts
2026-05-05 23:29 7.86826 94.97862 34837 ft 459 kts 16°
2026-05-05 23:29 7.89822 94.98986 34836 ft 457 kts 28°
2026-05-05 23:29 7.92491 95.00703 34837 ft 456 kts 40°
2026-05-05 23:29 7.94736 95.02943 34836 ft 455 kts 51°
2026-05-05 23:30 7.96465 95.05622 34836 ft 455 kts 63°
2026-05-05 23:30 7.97575 95.08562 34839 ft 455 kts 75°
2026-05-05 23:30 7.98413 95.14904 34843 ft 456 kts 85°
2026-05-05 23:31 7.98786 95.21287 34842 ft 457 kts 85°
2026-05-05 23:31 7.99147 95.27653 34841 ft 457 kts 85°
2026-05-05 23:32 7.99519 95.34068 34849 ft 457 kts 85°
2026-05-05 23:32 7.99890 95.40408 34857 ft 457 kts 85°
2026-05-05 23:33 8.00262 95.46792 34858 ft 457 kts 85°
2026-05-05 23:33 8.00600 95.53207 34859 ft 457 kts 86°
2026-05-05 23:34 8.00807 95.59610 34861 ft 458 kts 87°
2026-05-05 23:34 8.01004 95.65988 34861 ft 458 kts 87°
2026-05-05 23:35 8.01211 95.72411 34857 ft 458 kts 87°
2026-05-05 23:35 8.01420 95.78849 34859 ft 458 kts 87°
2026-05-05 23:36 8.01628 95.85239 34859 ft 458 kts 86°
2026-05-05 23:36 8.01836 95.91652 34858 ft 459 kts 86°
2026-05-05 23:37 8.02042 95.98077 34857 ft 459 kts 87°
2026-05-05 23:37 8.02248 96.04524 34855 ft 459 kts 86°
2026-05-05 23:38 8.02455 96.10956 34856 ft 459 kts 86°
2026-05-05 23:38 8.02659 96.17373 34854 ft 459 kts 86°
2026-05-05 23:39 8.02862 96.23788 34725 ft 461 kts 87°
2026-05-05 23:39 8.02966 96.27039 34426 ft 461 kts 87°
2026-05-05 23:39 8.03067 96.30244 34136 ft 462 kts 87°
2026-05-05 23:40 8.03168 96.33488 33846 ft 463 kts 87°
2026-05-05 23:40 8.03269 96.36714 33494 ft 464 kts 87°
2026-05-05 23:40 8.03372 96.39992 32983 ft 465 kts 87°
2026-05-05 23:40 8.03473 96.43229 32392 ft 465 kts 87°
2026-05-05 23:41 8.03573 96.46472 31773 ft 462 kts 87°
2026-05-05 23:41 8.03672 96.49661 31115 ft 460 kts 87°
2026-05-05 23:41 8.03771 96.52860 30434 ft 459 kts 87°
2026-05-05 23:41 8.03871 96.56078 29734 ft 458 kts 87°
2026-05-05 23:42 8.03971 96.59308 29022 ft 458 kts 87°
2026-05-05 23:42 8.04071 96.62531 28317 ft 457 kts 87°
2026-05-05 23:42 8.04168 96.65698 27642 ft 457 kts 88°
2026-05-05 23:42 8.04267 96.68931 26917 ft 457 kts 88°
2026-05-05 23:43 8.04365 96.72147 26171 ft 458 kts 88°
2026-05-05 23:43 8.04462 96.75374 25416 ft 458 kts 88°
2026-05-05 23:43 8.04558 96.78558 24666 ft 458 kts 88°
2026-05-05 23:43 8.04654 96.81749 24137 ft 452 kts 88°
2026-05-05 23:44 8.04749 96.84900 23632 ft 447 kts 88°
2026-05-05 23:44 8.04843 96.88032 23132 ft 441 kts 88°
2026-05-05 23:44 8.04934 96.91067 22644 ft 436 kts 88°
2026-05-05 23:44 8.05025 96.94104 22162 ft 431 kts 88°
2026-05-05 23:45 8.05116 96.97128 21699 ft 426 kts 88°
2026-05-05 23:45 8.05204 97.00075 21225 ft 422 kts 88°
2026-05-05 23:45 8.05291 97.02999 20746 ft 418 kts 88°
2026-05-05 23:45 8.05377 97.05920 20258 ft 414 kts 88°
2026-05-05 23:46 8.05462 97.08814 19767 ft 411 kts 88°
2026-05-05 23:46 8.05545 97.11661 19278 ft 407 kts 88°
2026-05-05 23:46 8.05629 97.14500 18788 ft 404 kts 88°
2026-05-05 23:46 8.05712 97.17323 18299 ft 400 kts 89°
2026-05-05 23:47 8.05795 97.20140 17807 ft 397 kts 89°
2026-05-05 23:47 8.05890 97.22880 17325 ft 394 kts 88°
2026-05-05 23:47 8.06034 97.25640 16835 ft 391 kts 88°
2026-05-05 23:47 8.06185 97.28329 16360 ft 388 kts 87°
2026-05-05 23:48 8.06336 97.31046 15878 ft 385 kts 87°
2026-05-05 23:48 8.06482 97.33703 15405 ft 381 kts 87°
2026-05-05 23:48 8.06626 97.36355 14932 ft 378 kts 87°
2026-05-05 23:48 8.06768 97.39002 14425 ft 375 kts 87°
2026-05-05 23:49 8.06906 97.41594 13942 ft 372 kts 88°
2026-05-05 23:49 8.07044 97.44181 13470 ft 368 kts 87°
2026-05-05 23:49 8.07180 97.46756 12998 ft 365 kts 87°
2026-05-05 23:49 8.07315 97.49301 12566 ft 360 kts 87°
2026-05-05 23:50 8.07446 97.51778 12143 ft 355 kts 87°
2026-05-05 23:50 8.07578 97.54262 11713 ft 351 kts 87°
2026-05-05 23:50 8.07704 97.56686 11288 ft 347 kts 88°
2026-05-05 23:50 8.07828 97.59119 10910 ft 341 kts 87°
2026-05-05 23:51 8.07948 97.61472 10673 ft 331 kts 88°
2026-05-05 23:51 8.08063 97.63749 10432 ft 322 kts 87°
2026-05-05 23:51 8.08175 97.65975 10192 ft 313 kts 88°
2026-05-05 23:51 8.08283 97.68117 10022 ft 303 kts 88°
2026-05-05 23:52 8.08388 97.70178 10010 ft 287 kts 87°
2026-05-05 23:52 8.08488 97.72170 10010 ft 281 kts 88°
2026-05-05 23:52 8.08587 97.74124 10012 ft 281 kts 88°
2026-05-05 23:52 8.08686 97.76106 10013 ft 281 kts 88°
2026-05-05 23:53 8.08786 97.78084 10013 ft 281 kts 88°
2026-05-05 23:53 8.08884 97.80034 10013 ft 281 kts 87°
2026-05-05 23:53 8.08792 97.81996 9993 ft 281 kts 106°
2026-05-05 23:53 8.07759 97.83672 10002 ft 285 kts 137°
2026-05-05 23:54 8.05987 97.84609 10011 ft 292 kts 164°
2026-05-05 23:54 8.03963 97.84634 10009 ft 299 kts 191°
2026-05-05 23:54 8.02092 97.83673 10010 ft 306 kts 220°
2026-05-05 23:54 8.00909 97.81912 10011 ft 311 kts 251°
2026-05-05 23:55 8.00631 97.79740 10027 ft 313 kts 269°
2026-05-05 23:55 8.00602 97.77568 10017 ft 312 kts 269°
2026-05-05 23:55 8.00549 97.75361 10012 ft 312 kts 268°
2026-05-05 23:55 8.00469 97.73170 10007 ft 312 kts 268°
2026-05-05 23:56 8.00666 97.71013 9980 ft 312 kts 290°
2026-05-05 23:56 8.01831 97.69205 9986 ft 307 kts 322°
2026-05-05 23:56 8.03693 97.68255 9989 ft 300 kts 353°
2026-05-05 23:56 8.05738 97.68400 9995 ft 291 kts 24°
2026-05-05 23:57 8.07404 97.69480 10000 ft 286 kts 49°
2026-05-05 23:57 8.08442 97.71172 10005 ft 281 kts 73°
2026-05-05 23:57 8.08695 97.73093 10017 ft 281 kts 90°
2026-05-05 23:57 8.08721 97.75080 10016 ft 281 kts 89°
2026-05-05 23:58 8.08781 97.77050 9977 ft 282 kts 88°
2026-05-05 23:58 8.08849 97.79021 9619 ft 282 kts 89°
2026-05-05 23:58 8.08824 97.81009 9194 ft 283 kts 94°
2026-05-05 23:58 8.08665 97.82991 8767 ft 283 kts 95°
2026-05-05 23:59 8.08488 97.84961 8342 ft 284 kts 95°
2026-05-05 23:59 8.08308 97.86942 7917 ft 284 kts 95°
2026-05-05 23:59 8.08130 97.88911 7493 ft 284 kts 95°
2026-05-05 23:59 8.07950 97.90909 7059 ft 283 kts 95°
2026-05-06 00:00 8.07799 97.92850 6656 ft 272 kts 91°
2026-05-06 00:00 8.07851 97.94732 6273 ft 264 kts 85°
2026-05-06 00:00 8.08014 97.96551 5895 ft 260 kts 84°
2026-05-06 00:00 8.08195 97.98344 5547 ft 254 kts 84°
2026-05-06 00:01 8.08371 98.00114 5257 ft 250 kts 84°
2026-05-06 00:01 8.08537 98.01828 4975 ft 246 kts 84°
2026-05-06 00:01 8.08699 98.03540 4692 ft 243 kts 84°
2026-05-06 00:01 8.08852 98.05206 4443 ft 234 kts 84°
2026-05-06 00:02 8.08995 98.06808 4204 ft 223 kts 84°
2026-05-06 00:02 8.09132 98.08323 4070 ft 211 kts 84°
2026-05-06 00:02 8.09263 98.09737 3969 ft 195 kts 84°
2026-05-06 00:02 8.09389 98.11079 3726 ft 188 kts 84°
2026-05-06 00:03 8.09513 98.12386 3485 ft 187 kts 83°
2026-05-06 00:03 8.09638 98.13689 3241 ft 187 kts 84°
2026-05-06 00:03 8.09762 98.14999 2996 ft 187 kts 84°
2026-05-06 00:03 8.09883 98.16287 2753 ft 187 kts 84°
2026-05-06 00:04 8.10007 98.17594 2493 ft 182 kts 84°
2026-05-06 00:04 8.10122 98.18830 2255 ft 175 kts 83°
2026-05-06 00:04 8.10235 98.20029 2025 ft 167 kts 83°
2026-05-06 00:04 8.10346 98.21202 1822 ft 169 kts 83°
2026-05-06 00:05 8.10555 98.23444 1364 ft 150 kts 84°
2026-05-06 00:05 8.10648 98.24474 1183 ft 143 kts 84°
2026-05-06 00:05 8.10728 98.25467 1024 ft 146 kts 84°
2026-05-06 00:06 8.10839 98.26496 914 ft 146 kts 82°
2026-05-06 00:06 8.10945 98.27499 668 ft 142 kts 85°
2026-05-06 00:06 8.11011 98.28498 457 ft 143 kts 85°
2026-05-06 00:06 8.11115 98.29526 247 ft 141 kts 84°
2026-05-06 00:07 8.11221 98.30596 44 ft 138 kts 85°
2026-05-06 00:07 8.11299 98.31441 55 ft 97 kts 84°
2026-05-06 00:07 8.11347 98.31948 85 ft 47 kts 85°
2026-05-06 00:07 8.11371 98.32207 98 ft 25 kts 85°
2026-05-06 00:08 8.11344 98.32365 100 ft 20 kts 111°
2026-05-06 00:08 8.11288 98.32434 103 ft 10 kts 179°
2026-05-06 00:08 8.11252 98.32386 105 ft 9 kts 263°
2026-05-06 00:08 8.11245 98.32321 105 ft 9 kts 264°
2026-05-06 00:09 8.11238 98.32245 103 ft 12 kts 265°
2026-05-06 00:09 8.11230 98.32145 99 ft 15 kts 265°
2026-05-06 00:09 8.11219 98.32021 94 ft 19 kts 264°
2026-05-06 00:09 8.11203 98.31863 83 ft 24 kts 264°
2026-05-06 00:10 8.11188 98.31704 72 ft 21 kts 264°
2026-05-06 00:10 8.11171 98.31529 61 ft 25 kts 264°
2026-05-06 00:10 8.11155 98.31336 50 ft 20 kts 264°
2026-05-06 00:10 8.11139 98.31186 45 ft 19 kts 264°
2026-05-06 00:11 8.11125 98.31040 41 ft 15 kts 265°
2026-05-06 00:11 8.11098 98.30949 40 ft 12 kts 248°
2026-05-06 00:11 8.11081 98.30845 38 ft 14 kts 264°
2026-05-06 00:11 8.11069 98.30727 36 ft 15 kts 264°
2026-05-06 00:12 8.11058 98.30608 35 ft 16 kts 265°
2026-05-06 00:12 8.11050 98.30519 34 ft 8 kts 259°
2026-05-06 00:12 8.10999 98.30479 34 ft 9 kts 194°
2026-05-06 00:12 8.10919 98.30459 33 ft 11 kts 194°
2026-05-06 00:13 8.10837 98.30437 33 ft 11 kts 195°
2026-05-06 00:13 8.10758 98.30416 34 ft 10 kts 194°
2026-05-06 00:13 8.10697 98.30401 34 ft 5 kts 186°
2026-05-06 00:13 8.10666 98.30428 35 ft 4 kts 108°
2026-05-06 00:14 8.10658 98.30456 36 ft 2 kts 104°
2026-05-06 00:14 8.10655 98.30467 36 ft 0 kts 104°
2026-05-06 00:14 8.10653 98.30476 37 ft 2 kts 105°
2026-05-06 00:14 8.10651 98.30482 37 ft 0 kts 105°